DW8879 Weather Reports


time (UTC)temp
C
wind
direction
speed
KPH
gust
KPH
rain 1hr
cm
rain 24hr
cm
rain mn
cm
humidity
%
barometer
mb
20260509012135 19 169 0.0 3.2 0.00 0.00 0.00 72 1011.5
20260509012028 19 169 0.0 3.2 0.00 0.00 0.00 72 1011.5
20260509011704 19 169 0.0 1.6 0.00 0.00 0.00 71 1011.5
20260509011340 20 169 0.0 1.6 0.00 0.00 0.00 71 1011.6
20260509011234 20 169 0.0 1.6 0.00 0.00 0.00 71 1011.5
20260509011130 20 169 0.0 1.6 0.00 0.00 0.00 71 1011.6
20260509011027 20 169 1.6 1.6 0.00 0.00 0.00 70 1011.6
20260509010922 20 156 1.6 8.0 0.00 0.00 0.00 70 1011.6
20260509010816 20 156 1.6 8.0 0.00 0.00 0.00 70 1011.6
20260509010711 20 156 1.6 8.0 0.00 0.00 0.00 70 1011.6
20260509010606 20 156 3.2 9.7 0.00 0.00 0.00 70 1011.5
20260509010504 20 156 3.2 9.7 0.00 0.00 0.00 70 1011.5
20260509010359 20 171 3.2 9.7 0.00 0.00 0.00 69 1011.5
20260509010033 20 168 1.6 9.7 0.00 0.00 0.00 69 1011.5
20260509005927 20 158 1.6 9.7 0.00 0.00 0.00 69 1011.5
20260509005824 20 183 3.2 9.7 0.00 0.00 0.00 69 1011.5
20260509005722 20 168 3.2 9.7 0.00 0.00 0.00 69 1011.6
20260509005617 20 184 3.2 9.7 0.00 0.00 0.00 69 1011.6
20260509005510 20 169 3.2 9.7 0.00 0.00 0.00 69 1011.6
20260509005402 20 200 3.2 9.7 0.00 0.00 0.00 69 1011.6
20260509005039 20 183 1.6 9.7 0.00 0.00 0.00 69 1011.5
20260509004936 20 180 1.6 9.7 0.00 0.00 0.00 69 1011.5
20260509004832 20 204 1.6 9.7 0.00 0.00 0.00 68 1011.5
20260509004250 20 141 0.0 4.8 0.00 0.00 0.00 68 1011.4
20260509003704 20 184 0.0 1.6 0.00 0.00 0.00 66 1011.3
20260509003341 20 271 0.0 0.0 0.00 0.00 0.00 66 1011.3
20260509003239 20 271 0.0 0.0 0.00 0.00 0.00 66 1011.3
20260509003133 20 273 0.0 0.0 0.00 0.00 0.00 66 1011.3
20260509003030 20 273 0.0 0.0 0.00 0.00 0.00 66 1011.2
20260509002446 21 183 0.0 4.8 0.00 0.00 0.00 63 1011.3
20260509002343 21 183 0.0 4.8 0.00 0.00 0.00 63 1011.2
20260509002239 21 183 0.0 4.8 0.00 0.00 0.00 64 1011.3
20260509002132 21 183 1.6 9.7 0.00 0.00 0.00 64 1011.3
20260509002027 21 183 1.6 9.7 0.00 0.00 0.00 63 1011.2
20260509001920 21 183 1.6 9.7 0.00 0.00 0.00 62 1011.2
20260509001814 21 183 1.6 9.7 0.00 0.00 0.00 62 1011.2
20260509001711 21 183 3.2 9.7 0.00 0.00 0.00 62 1011.1
20260509001608 21 183 3.2 9.7 0.00 0.00 0.00 62 1011.1
20260509001501 21 183 3.2 9.7 0.00 0.00 0.00 61 1011.1
20260509001354 21 164 3.2 9.7 0.00 0.00 0.00 61 1011.0
20260509001251 21 160 3.2 9.7 0.00 0.00 0.00 61 1011.0
20260509001148 21 173 3.2 9.7 0.00 0.00 0.00 61 1011.1
20260509001044 21 147 3.2 9.7 0.00 0.00 0.00 60 1011.0
20260509000938 21 159 3.2 9.7 0.00 0.00 0.00 60 1011.0
20260509000612 21 171 3.2 9.7 0.00 0.00 0.00 60 1011.0
20260509000506 21 195 3.2 9.7 0.00 0.00 0.00 60 1011.0
20260509000359 21 171 3.2 9.7 0.00 0.00 0.00 60 1011.0
20260509000256 21 191 3.2 9.7 0.00 0.00 0.00 59 1011.0
20260509000149 21 142 1.6 8.0 0.00 0.00 0.00 59 1011.0
20260509000043 21 161 1.6 8.0 0.00 0.00 0.00 59 1011.0
20260508235938 21 201 3.2 8.0 0.00 0.00 0.00 59 1011.0
20260508235834 21 182 3.2 8.0 0.00 0.00 0.00 58 1011.1
20260508235731 21 202 3.2 8.0 0.00 0.00 0.00 60 1011.1
20260508235626 21 152 3.2 11.3 0.00 0.00 0.00 59 1011.1
20260508235519 21 167 3.2 11.3 0.00 0.00 0.00 59 1011.1
20260508235412 21 186 3.2 11.3 0.00 0.00 0.00 59 1011.1
20260508235309 21 190 3.2 11.3 0.00 0.00 0.00 58 1011.2
20260508235207 21 200 3.2 11.3 0.00 0.00 0.00 57 1011.2
20260508235103 21 139 3.2 11.3 0.00 0.00 0.00 57 1011.2
20260508234957 21 192 3.2 11.3 0.00 0.00 0.00 57 1011.2
20260508234634 21 180 4.8 11.3 0.00 0.00 0.00 57 1011.2
20260508234531 21 155 4.8 11.3 0.00 0.00 0.00 57 1011.2
20260508234429 21 203 4.8 11.3 0.00 0.00 0.00 58 1011.2
20260508234103 22 179 4.8 11.3 0.00 0.00 0.00 57 1011.2
20260508234000 22 209 4.8 11.3 0.00 0.00 0.00 56 1011.2
20260508233855 22 193 4.8 11.3 0.00 0.00 0.00 56 1011.2
20260508233530 22 167 3.2 11.3 0.00 0.00 0.00 57 1011.2
20260508233427 22 175 3.2 11.3 0.00 0.00 0.00 56 1011.3
20260508233322 22 187 3.2 11.3 0.00 0.00 0.00 58 1011.3
20260508233217 22 202 3.2 11.3 0.00 0.00 0.00 57 1011.3
20260508233109 22 169 3.2 11.3 0.00 0.00 0.00 58 1011.2
20260508233007 22 188 3.2 11.3 0.00 0.00 0.00 57 1011.2
20260508232903 22 188 4.8 11.3 0.00 0.00 0.00 57 1011.3
20260508232800 22 198 4.8 11.3 0.00 0.00 0.00 57 1011.3
20260508232658 22 163 4.8 11.3 0.00 0.00 0.00 57 1011.3
20260508232552 22 188 4.8 11.3 0.00 0.00 0.00 57 1011.3
20260508232448 22 205 6.4 11.3 0.00 0.00 0.00 56 1011.3
20260508232344 22 186 6.4 11.3 0.00 0.00 0.00 56 1011.3
20260508232240 22 130 6.4 11.3 0.00 0.00 0.00 56 1011.3
20260508232134 22 140 4.8 11.3 0.00 0.00 0.00 56 1011.3
20260508232028 22 144 4.8 11.3 0.00 0.00 0.00 57 1011.3
20260508231706 22 179 4.8 11.3 0.00 0.00 0.00 58 1011.3
20260508231601 22 178 4.8 9.7 0.00 0.00 0.00 57 1011.3
20260508231454 22 171 4.8 9.7 0.00 0.00 0.00 58 1011.3
20260508231347 22 155 4.8 9.7 0.00 0.00 0.00 58 1011.3
20260508231242 22 209 4.8 9.7 0.00 0.00 0.00 57 1011.3
20260508231135 22 171 4.8 9.7 0.00 0.00 0.00 57 1011.3
20260508231030 22 192 4.8 9.7 0.00 0.00 0.00 57 1011.2
20260508230926 22 178 4.8 9.7 0.00 0.00 0.00 57 1011.2
20260508230822 22 216 4.8 9.7 0.00 0.00 0.00 57 1011.3
20260508230716 22 195 4.8 9.7 0.00 0.00 0.00 56 1011.3
20260508230612 22 173 4.8 9.7 0.00 0.00 0.00 56 1011.3
20260508230509 22 200 4.8 9.7 0.00 0.00 0.00 56 1011.3
20260508230407 22 169 4.8 9.7 0.00 0.00 0.00 56 1011.3
20260508230301 22 198 4.8 9.7 0.00 0.00 0.00 55 1011.4
20260508230154 22 161 4.8 9.7 0.00 0.00 0.00 56 1011.4
20260508230046 22 188 4.8 9.7 0.00 0.00 0.00 56 1011.3
20260508225500 22 157 4.8 11.3 0.00 0.00 0.00 55 1011.5
20260508225355 22 161 6.4 11.3 0.00 0.00 0.00 55 1011.5
20260508225249 22 171 6.4 11.3 0.00 0.00 0.00 55 1011.5
20260508224703 22 153 4.8 11.3 0.00 0.00 0.00 54 1011.5
20260508224600 22 213 3.2 11.3 0.00 0.00 0.00 54 1011.6
20260508224453 22 182 3.2 11.3 0.00 0.00 0.00 54 1011.6
20260508224130 22 183 3.2 11.3 0.00 0.00 0.00 55 1011.6
20260508224022 22 163 3.2 11.3 0.00 0.00 0.00 55 1011.6
20260508223918 22 209 3.2 11.3 0.00 0.00 0.00 54 1011.6
20260508223811 22 163 3.2 11.3 0.00 0.00 0.00 56 1011.5
20260508223704 22 103 4.8 11.3 0.00 0.00 0.00 55 1011.5
20260508223557 22 124 6.4 11.3 0.00 0.00 0.00 55 1011.5
20260508223450 22 187 6.4 11.3 0.00 0.00 0.00 54 1011.5
20260508223125 22 235 6.4 11.3 0.00 0.00 0.00 56 1011.5
20260508223021 22 185 6.4 11.3 0.00 0.00 0.00 55 1011.4
20260508222914 22 187 4.8 11.3 0.00 0.00 0.00 54 1011.4
20260508222811 22 194 4.8 11.3 0.00 0.00 0.00 54 1011.5
20260508222443 22 211 3.2 14.5 0.00 0.00 0.00 54 1011.6
20260508222339 22 155 4.8 14.5 0.00 0.00 0.00 55 1011.6
20260508222233 22 202 4.8 14.5 0.00 0.00 0.00 55 1011.6
20260508222129 22 136 4.8 14.5 0.00 0.00 0.00 55 1011.6
20260508222025 22 179 4.8 14.5 0.00 0.00 0.00 54 1011.7
20260508221705 22 170 6.4 14.5 0.00 0.00 0.00 53 1011.7
20260508221600 22 169 6.4 14.5 0.00 0.00 0.00 53 1011.7
20260508220758 22 211 6.4 14.5 0.00 0.00 0.00 51 1011.8
20260508220435 22 193 6.4 11.3 0.00 0.00 0.00 52 1011.8
20260508220333 22 166 6.4 14.5 0.00 0.00 0.00 52 1011.7
20260508220226 22 155 8.0 14.5 0.00 0.00 0.00 52 1011.7
20260508220120 22 195 6.4 14.5 0.00 0.00 0.00 52 1011.8
20260508220013 22 196 6.4 14.5 0.00 0.00 0.00 52 1011.7
20260508215907 22 165 8.0 14.5 0.00 0.00 0.00 53 1011.7
20260508215801 22 188 6.4 14.5 0.00 0.00 0.00 53 1011.7
20260508215653 22 216 6.4 14.5 0.00 0.00 0.00 52 1011.8
20260508215547 22 195 6.4 14.5 0.00 0.00 0.00 52 1011.8
20260508215445 22 180 6.4 14.5 0.00 0.00 0.00 52 1011.8
20260508215342 22 194 6.4 14.5 0.00 0.00 0.00 51 1011.7
20260508214801 23 192 6.4 14.5 0.00 0.00 0.00 53 1011.8
20260508214657 23 193 6.4 14.5 0.00 0.00 0.00 53 1011.7
20260508214553 23 185 4.8 14.5 0.00 0.00 0.00 53 1011.7
20260508214450 23 168 4.8 14.5 0.00 0.00 0.00 54 1011.7
20260508214348 23 187 4.8 14.5 0.00 0.00 0.00 53 1011.7
20260508214244 23 187 4.8 14.5 0.00 0.00 0.00 55 1011.7
20260508214142 23 198 4.8 14.5 0.00 0.00 0.00 55 1011.7
20260508214037 23 157 6.4 14.5 0.00 0.00 0.00 54 1011.7
20260508213933 23 164 4.8 14.5 0.00 0.00 0.00 54 1011.7
20260508213831 23 161 6.4 14.5 0.00 0.00 0.00 56 1011.7
20260508213724 23 215 6.4 14.5 0.00 0.00 0.00 53 1011.6
20260508213617 23 166 6.4 14.5 0.00 0.00 0.00 52 1011.7
20260508213514 23 161 6.4 14.5 0.00 0.00 0.00 51 1011.7
20260508213410 23 169 4.8 14.5 0.00 0.00 0.00 51 1011.7
20260508213304 23 197 4.8 14.5 0.00 0.00 0.00 51 1011.8
20260508213202 23 142 3.2 14.5 0.00 0.00 0.00 51 1011.8
20260508213056 23 239 3.2 16.1 0.00 0.00 0.00 53 1011.8
20260508212951 23 148 3.2 16.1 0.00 0.00 0.00 53 1011.8
20260508212845 23 196 3.2 16.1 0.00 0.00 0.00 54 1011.8
20260508212739 23 216 3.2 16.1 0.00 0.00 0.00 54 1011.9
20260508212632 23 233 3.2 16.1 0.00 0.00 0.00 52 1011.9
20260508212525 23 202 3.2 16.1 0.00 0.00 0.00 53 1011.9
20260508212203 23 205 4.8 16.1 0.00 0.00 0.00 51 1011.9
20260508212056 23 205 6.4 16.1 0.00 0.00 0.00 50 1012.0
20260508211953 23 138 6.4 16.1 0.00 0.00 0.00 51 1012.0
20260508211846 23 209 4.8 16.1 0.00 0.00 0.00 51 1012.0
20260508211741 23 189 4.8 16.1 0.00 0.00 0.00 51 1012.0
20260508211418 23 172 4.8 16.1 0.00 0.00 0.00 51 1012.0
20260508211313 23 163 4.8 16.1 0.00 0.00 0.00 51 1012.1
20260508211206 23 155 4.8 16.1 0.00 0.00 0.00 49 1012.0
20260508211102 23 217 4.8 14.5 0.00 0.00 0.00 49 1012.1
20260508210956 23 202 6.4 14.5 0.00 0.00 0.00 51 1012.1
20260508210852 23 203 6.4 14.5 0.00 0.00 0.00 53 1012.1
20260508210524 23 171 6.4 14.5 0.00 0.00 0.00 51 1012.1
20260508205721 23 202 6.4 12.9 0.00 0.00 0.00 51 1012.1
20260508205619 23 216 6.4 12.9 0.00 0.00 0.00 51 1012.1
20260508205511 23 173 6.4 12.9 0.00 0.00 0.00 51 1012.1
20260508205404 23 128 4.8 12.9 0.00 0.00 0.00 51 1012.1
20260508205300 23 190 4.8 12.9 0.00 0.00 0.00 51 1012.1
20260508205153 23 182 4.8 12.9 0.00 0.00 0.00 50 1012.2
20260508205051 23 173 4.8 12.9 0.00 0.00 0.00 54 1012.2
20260508204944 23 157 4.8 11.3 0.00 0.00 0.00 55 1012.2
20260508204840 23 217 4.8 11.3 0.00 0.00 0.00 51 1012.2
20260508204736 23 222 4.8 11.3 0.00 0.00 0.00 55 1012.2
20260508204629 23 173 3.2 11.3 0.00 0.00 0.00 53 1012.2
20260508204308 23 153 3.2 11.3 0.00 0.00 0.00 50 1012.3
20260508204201 23 171 3.2 11.3 0.00 0.00 0.00 52 1012.3
20260508204056 23 165 3.2 11.3 0.00 0.00 0.00 51 1012.3
20260508203952 23 179 4.8 11.3 0.00 0.00 0.00 52 1012.3
20260508203412 23 176 4.8 16.1 0.00 0.00 0.00 54 1012.4
20260508203309 23 195 4.8 16.1 0.00 0.00 0.00 51 1012.3
20260508203207 23 227 6.4 16.1 0.00 0.00 0.00 50 1012.3
20260508203102 23 197 6.4 16.1 0.00 0.00 0.00 51 1012.3
20260508202957 23 161 6.4 16.1 0.00 0.00 0.00 49 1012.4
20260508202852 23 173 6.4 16.1 0.00 0.00 0.00 54 1012.3
20260508202747 23 206 6.4 16.1 0.00 0.00 0.00 51 1012.3
20260508202422 23 138 6.4 16.1 0.00 0.00 0.00 49 1012.4
20260508202053 23 148 6.4 16.1 0.00 0.00 0.00 51 1012.4
20260508201507 23 198 6.4 16.1 0.00 0.00 0.00 52 1012.5
20260508201400 23 229 6.4 16.1 0.00 0.00 0.00 49 1012.6
20260508201038 23 209 6.4 16.1 0.00 0.00 0.00 47 1012.6
20260508200935 23 171 6.4 16.1 0.00 0.00 0.00 48 1012.7
20260508200831 23 176 4.8 17.7 0.00 0.00 0.00 53 1012.7
20260508200729 23 215 4.8 17.7 0.00 0.00 0.00 55 1012.7
20260508200626 23 196 4.8 17.7 0.00 0.00 0.00 50 1012.7
20260508200520 23 198 4.8 17.7 0.00 0.00 0.00 51 1012.6
20260508200417 23 210 4.8 17.7 0.00 0.00 0.00 49 1012.7
20260508200052 23 156 4.8 17.7 0.00 0.00 0.00 51 1012.7
20260508195948 23 177 4.8 17.7 0.00 0.00 0.00 53 1012.7
20260508195843 23 180 4.8 17.7 0.00 0.00 0.00 54 1012.7
20260508195523 23 209 6.4 17.7 0.00 0.00 0.00 55 1012.8
20260508195419 23 221 6.4 17.7 0.00 0.00 0.00 54 1012.9
20260508195312 23 196 6.4 17.7 0.00 0.00 0.00 53 1012.9
20260508194952 23 190 4.8 17.7 0.00 0.00 0.00 51 1013.0
20260508194845 23 148 4.8 14.5 0.00 0.00 0.00 52 1013.1
20260508194742 23 178 4.8 14.5 0.00 0.00 0.00 52 1013.0
20260508194635 23 175 4.8 14.5 0.00 0.00 0.00 51 1013.0
20260508194531 23 194 4.8 12.9 0.00 0.00 0.00 52 1013.1
20260508194429 23 167 3.2 12.9 0.00 0.00 0.00 50 1013.1
20260508194326 23 173 3.2 12.9 0.00 0.00 0.00 52 1013.1
20260508194223 23 145 3.2 16.1 0.00 0.00 0.00 50 1013.1
20260508194120 23 206 3.2 16.1 0.00 0.00 0.00 53 1013.1
20260508194018 23 182 1.6 16.1 0.00 0.00 0.00 54 1013.1
20260508193914 23 134 3.2 16.1 0.00 0.00 0.00 51 1013.1
20260508193810 23 109 3.2 16.1 0.00 0.00 0.00 54 1013.1
20260508193707 22 169 3.2 16.1 0.00 0.00 0.00 56 1013.0
20260508193603 22 142 3.2 16.1 0.00 0.00 0.00 55 1012.9
20260508193455 22 138 4.8 16.1 0.00 0.00 0.00 52 1012.9
20260508193353 22 157 4.8 16.1 0.00 0.00 0.00 51 1013.0
20260508193248 22 166 6.4 16.1 0.00 0.00 0.00 54 1013.0
20260508193145 22 168 6.4 16.1 0.00 0.00 0.00 55 1013.0
20260508193042 22 215 6.4 16.1 0.00 0.00 0.00 51 1012.9
20260508192717 22 209 4.8 16.1 0.00 0.00 0.00 52 1012.9
20260508192354 23 179 3.2 16.1 0.00 0.00 0.00 51 1012.9
20260508192247 23 196 3.2 14.5 0.00 0.00 0.00 51 1013.0
20260508192144 23 188 3.2 9.7 0.00 0.00 0.00 56 1013.0
20260508192040 23 184 3.2 9.7 0.00 0.00 0.00 54 1013.0
20260508191933 23 200 3.2 9.7 0.00 0.00 0.00 54 1013.0
20260508191831 23 265 3.2 11.3 0.00 0.00 0.00 52 1013.0
20260508191503 23 168 3.2 11.3 0.00 0.00 0.00 55 1013.1
20260508191356 23 190 3.2 11.3 0.00 0.00 0.00 54 1013.1
20260508191253 22 200 3.2 11.3 0.00 0.00 0.00 53 1013.2
20260508191149 22 89 3.2 11.3 0.00 0.00 0.00 57 1013.1
20260508191042 22 204 3.2 11.3 0.00 0.00 0.00 57 1013.2
20260508190939 22 179 3.2 11.3 0.00 0.00 0.00 49 1013.3
20260508190619 22 198 3.2 11.3 0.00 0.00 0.00 50 1013.3
20260508190513 22 156 3.2 11.3 0.00 0.00 0.00 50 1013.4
20260508190405 22 162 3.2 11.3 0.00 0.00 0.00 51 1013.5
20260508190300 22 210 3.2 11.3 0.00 0.00 0.00 50 1013.5
20260508185934 22 198 3.2 11.3 0.00 0.00 0.00 52 1013.6
20260508185830 22 232 3.2 9.7 0.00 0.00 0.00 52 1013.5
20260508185725 22 135 1.6 9.7 0.00 0.00 0.00 52 1013.6
20260508185622 22 213 1.6 9.7 0.00 0.00 0.00 53 1013.5
20260508185515 22 216 1.6 9.7 0.00 0.00 0.00 52 1013.5
20260508185413 22 148 1.6 9.7 0.00 0.00 0.00 51 1013.5
20260508185310 22 153 1.6 9.7 0.00 0.00 0.00 55 1013.5
20260508185204 22 88 1.6 9.7 0.00 0.00 0.00 55 1013.5
20260508185100 22 301 1.6 9.7 0.00 0.00 0.00 54 1013.6
20260508184957 22 113 3.2 9.7 0.00 0.00 0.00 56 1013.6
20260508184849 22 175 3.2 9.7 0.00 0.00 0.00 51 1013.6
20260508184747 22 192 3.2 11.3 0.00 0.00 0.00 54 1013.6
20260508184640 22 222 4.8 11.3 0.00 0.00 0.00 54 1013.7
20260508184534 22 242 4.8 11.3 0.00 0.00 0.00 52 1013.7
20260508184427 22 347 4.8 11.3 0.00 0.00 0.00 51 1013.7
20260508184107 22 159 6.4 11.3 0.00 0.00 0.00 50 1013.8
20260508183959 22 213 4.8 11.3 0.00 0.00 0.00 50 1013.8
20260508183856 22 169 4.8 11.3 0.00 0.00 0.00 52 1013.9
20260508183752 22 172 4.8 14.5 0.00 0.00 0.00 53 1013.9
20260508183647 22 159 4.8 14.5 0.00 0.00 0.00 49 1013.9
20260508183544 22 185 4.8 14.5 0.00 0.00 0.00 51 1013.9
20260508183437 22 175 4.8 14.5 0.00 0.00 0.00 49 1013.9
20260508183333 22 193 4.8 14.5 0.00 0.00 0.00 51 1013.9
20260508182748 22 196 6.4 14.5 0.00 0.00 0.00 56 1014.1
20260508182642 22 210 6.4 14.5 0.00 0.00 0.00 56 1014.2
20260508182537 22 258 6.4 14.5 0.00 0.00 0.00 54 1014.2
20260508182435 22 217 6.4 14.5 0.00 0.00 0.00 56 1014.2
20260508182331 22 212 6.4 14.5 0.00 0.00 0.00 52 1014.3
20260508182227 22 196 6.4 14.5 0.00 0.00 0.00 52 1014.4
20260508182122 22 162 4.8 14.5 0.00 0.00 0.00 51 1014.3
20260508182017 22 198 4.8 14.5 0.00 0.00 0.00 52 1014.4
20260508181914 22 173 4.8 14.5 0.00 0.00 0.00 55 1014.4
20260508181808 22 200 3.2 11.3 0.00 0.00 0.00 56 1014.4
20260508181446 21 194 4.8 12.9 0.00 0.00 0.00 53 1014.5
20260508181341 21 203 4.8 12.9 0.00 0.00 0.00 52 1014.5
20260508181015 22 184 4.8 12.9 0.00 0.00 0.00 54 1014.7
20260508180910 22 294 3.2 12.9 0.00 0.00 0.00 52 1014.8
20260508180806 22 136 3.2 12.9 0.00 0.00 0.00 54 1014.9
20260508180702 22 201 3.2 14.5 0.00 0.00 0.00 51 1015.0
20260508180556 22 155 3.2 14.5 0.00 0.00 0.00 53 1015.0
20260508180452 22 170 3.2 14.5 0.00 0.00 0.00 52 1015.0
20260508180349 22 222 3.2 14.5 0.00 0.00 0.00 52 1015.0
20260508180246 22 165 3.2 14.5 0.00 0.00 0.00 59 1015.0
20260508180140 21 297 4.8 14.5 0.00 0.00 0.00 57 1015.0
20260508180038 21 297 4.8 14.5 0.00 0.00 0.00 54 1015.0
20260508175934 21 277 6.4 14.5 0.00 0.00 0.00 52 1015.0
20260508175608 21 177 6.4 14.5 0.00 0.00 0.00 51 1015.0
20260508175502 21 167 4.8 14.5 0.00 0.00 0.00 52 1014.9
20260508175359 21 204 4.8 14.5 0.00 0.00 0.00 53 1014.9
20260508175256 21 231 4.8 14.5 0.00 0.00 0.00 51 1014.9
20260508175149 21 214 4.8 14.5 0.00 0.00 0.00 50 1014.9
20260508175046 21 203 4.8 14.5 0.00 0.00 0.00 50 1015.0
20260508174941 21 141 4.8 14.5 0.00 0.00 0.00 51 1015.0
20260508174834 22 182 4.8 14.5 0.00 0.00 0.00 49 1015.0
20260508174726 22 175 4.8 9.7 0.00 0.00 0.00 54 1015.0
20260508174407 21 211 4.8 14.5 0.00 0.00 0.00 52 1015.2
20260508174304 21 231 4.8 14.5 0.00 0.00 0.00 53 1015.1
20260508174200 21 202 4.8 14.5 0.00 0.00 0.00 50 1015.1
20260508174053 21 250 3.2 14.5 0.00 0.00 0.00 53 1015.2
20260508173949 21 198 3.2 14.5 0.00 0.00 0.00 52 1015.2
20260508173843 21 180 3.2 14.5 0.00 0.00 0.00 58 1015.2
20260508173739 21 182 3.2 14.5 0.00 0.00 0.00 56 1015.2
20260508173634 21 187 4.8 14.5 0.00 0.00 0.00 52 1015.2
20260508173530 21 173 4.8 14.5 0.00 0.00 0.00 55 1015.3
20260508173428 21 196 4.8 14.5 0.00 0.00 0.00 53 1015.3
20260508173320 21 200 4.8 14.5 0.00 0.00 0.00 55 1015.4
20260508172952 21 107 4.8 14.5 0.00 0.00 0.00 53 1015.4
20260508172848 21 201 4.8 14.5 0.00 0.00 0.00 51 1015.4
20260508172521 21 222 3.2 12.9 0.00 0.00 0.00 54 1015.5
20260508172415 21 159 3.2 12.9 0.00 0.00 0.00 55 1015.5
20260508172307 21 192 3.2 11.3 0.00 0.00 0.00 55 1015.5
20260508172201 21 166 3.2 11.3 0.00 0.00 0.00 54 1015.5
20260508172055 21 154 3.2 11.3 0.00 0.00 0.00 54 1015.5
20260508171728 21 135 4.8 11.3 0.00 0.00 0.00 55 1015.6
20260508171403 21 292 6.4 11.3 0.00 0.00 0.00 53 1015.8
20260508170821 21 165 4.8 12.9 0.00 0.00 0.00 54 1015.8
20260508170714 21 157 3.2 12.9 0.00 0.00 0.00 56 1015.7
20260508170609 21 210 3.2 12.9 0.00 0.00 0.00 55 1015.8
20260508170248 21 192 4.8 16.1 0.00 0.00 0.00 55 1015.8
20260508170143 21 221 4.8 16.1 0.00 0.00 0.00 56 1015.8
20260508170036 21 226 4.8 16.1 0.00 0.00 0.00 58 1016.0
20260508165929 21 218 4.8 16.1 0.00 0.00 0.00 58 1016.0
20260508165826 21 295 6.4 16.1 0.00 0.00 0.00 54 1016.0
20260508165720 21 163 6.4 16.1 0.00 0.00 0.00 53 1016.1
20260508165614 21 228 6.4 16.1 0.00 0.00 0.00 55 1016.0
20260508165510 21 184 6.4 16.1 0.00 0.00 0.00 54 1016.1
20260508165406 21 166 6.4 16.1 0.00 0.00 0.00 54 1016.0
20260508165306 21 206 6.4 16.1 0.00 0.00 0.00 54 1016.0
20260508165156 21 192 6.4 16.1 0.00 0.00 0.00 58 1016.0
20260508164830 21 219 4.8 16.1 0.00 0.00 0.00 54 1016.0
20260508164727 21 197 4.8 16.1 0.00 0.00 0.00 54 1016.0
20260508164625 21 166 3.2 16.1 0.00 0.00 0.00 53 1016.0
20260508164518 21 170 3.2 16.1 0.00 0.00 0.00 58 1016.0
20260508163935 21 198 1.6 9.7 0.00 0.00 0.00 59 1016.1
20260508163831 21 151 1.6 9.7 0.00 0.00 0.00 60 1016.1
20260508163724 21 225 3.2 9.7 0.00 0.00 0.00 58 1016.1
20260508163359 21 211 4.8 9.7 0.00 0.00 0.00 56 1016.2
20260508163255 21 169 3.2 9.7 0.00 0.00 0.00 56 1016.2
20260508163148 21 198 3.2 12.9 0.00 0.00 0.00 57 1016.2
20260508163042 21 144 3.2 12.9 0.00 0.00 0.00 60 1016.2
20260508162938 20 167 3.2 12.9 0.00 0.00 0.00 56 1016.3
20260508162832 20 201 3.2 12.9 0.00 0.00 0.00 61 1016.4
20260508162729 20 144 4.8 12.9 0.00 0.00 0.00 58 1016.4
20260508162624 21 215 4.8 12.9 0.00 0.00 0.00 57 1016.5
20260508162306 20 155 4.8 12.9 0.00 0.00 0.00 61 1016.7
20260508162156 20 123 6.4 14.5 0.00 0.00 0.00 59 1016.6
20260508162054 20 210 6.4 14.5 0.00 0.00 0.00 60 1016.6
20260508161728 20 196 4.8 14.5 0.00 0.00 0.00 54 1016.7
20260508161621 20 182 4.8 14.5 0.00 0.00 0.00 61 1016.7
20260508161518 20 205 4.8 14.5 0.00 0.00 0.00 60 1016.8
20260508161153 20 192 4.8 14.5 0.00 0.00 0.00 58 1016.9
20260508161048 20 196 6.4 14.5 0.00 0.00 0.00 57 1016.9
20260508160946 20 194 6.4 14.5 0.00 0.00 0.00 61 1016.9
20260508160841 20 202 6.4 14.5 0.00 0.00 0.00 60 1016.9
20260508160734 20 200 6.4 14.5 0.00 0.00 0.00 57 1016.9
20260508160632 20 186 6.4 14.5 0.00 0.00 0.00 56 1016.9
20260508160525 20 198 6.4 14.5 0.00 0.00 0.00 57 1016.9
20260508160421 20 216 6.4 14.5 0.00 0.00 0.00 58 1017.0
20260508160317 20 194 6.4 14.5 0.00 0.00 0.00 57 1016.9
20260508160215 20 159 6.4 14.5 0.00 0.00 0.00 57 1016.9
20260508160109 20 173 6.4 12.9 0.00 0.00 0.00 57 1016.9
20260508160001 20 165 6.4 12.9 0.00 0.00 0.00 58 1017.0
20260508155854 20 205 6.4 12.9 0.00 0.00 0.00 62 1017.0
20260508155750 20 184 6.4 12.9 0.00 0.00 0.00 60 1017.0
20260508155207 20 195 6.4 12.9 0.00 0.00 0.00 61 1017.0
20260508155103 20 200 4.8 16.1 0.00 0.00 0.00 61 1016.9
20260508154956 20 160 4.8 16.1 0.00 0.00 0.00 60 1016.9
20260508154851 20 202 4.8 16.1 0.00 0.00 0.00 59 1016.9
20260508154744 20 214 4.8 16.1 0.00 0.00 0.00 59 1016.8
20260508154641 20 167 4.8 16.1 0.00 0.00 0.00 61 1016.8
20260508154537 20 172 4.8 16.1 0.00 0.00 0.00 61 1016.8
20260508154429 19 176 4.8 16.1 0.00 0.00 0.00 64 1016.8
20260508154327 19 193 4.8 16.1 0.00 0.00 0.00 61 1016.8
20260508154223 19 202 4.8 16.1 0.00 0.00 0.00 61 1016.8
20260508154120 19 205 4.8 16.1 0.00 0.00 0.00 61 1016.8
20260508154017 19 227 6.4 16.1 0.00 0.00 0.00 60 1016.8
20260508153913 19 234 6.4 16.1 0.00 0.00 0.00 59 1016.8
20260508153806 19 211 6.4 16.1 0.00 0.00 0.00 62 1016.8
20260508153704 19 167 6.4 16.1 0.00 0.00 0.00 61 1016.8
20260508153602 19 189 6.4 16.1 0.00 0.00 0.00 60 1016.8
20260508153237 19 184 6.4 16.1 0.00 0.00 0.00 61 1016.9
20260508153132 19 208 6.4 16.1 0.00 0.00 0.00 61 1016.9
20260508153028 19 177 6.4 11.3 0.00 0.00 0.00 59 1016.9
20260508152659 19 179 6.4 11.3 0.00 0.00 0.00 61 1017.0
20260508152338 18 196 6.4 11.3 0.00 0.00 0.00 62 1016.9
20260508152233 18 198 6.4 11.3 0.00 0.00 0.00 60 1017.0
20260508152129 18 209 6.4 11.3 0.00 0.00 0.00 61 1017.0
20260508152021 18 184 6.4 11.3 0.00 0.00 0.00 59 1017.0
20260508151658 18 178 4.8 11.3 0.00 0.00 0.00 62 1017.0
20260508151552 18 178 4.8 11.3 0.00 0.00 0.00 64 1017.0
20260508151446 18 168 4.8 11.3 0.00 0.00 0.00 64 1017.1
20260508151342 18 236 4.8 11.3 0.00 0.00 0.00 63 1017.0
20260508151013 18 180 4.8 11.3 0.00 0.00 0.00 67 1017.0
20260508150911 18 215 4.8 11.3 0.00 0.00 0.00 68 1017.0
20260508150549 18 190 4.8 11.3 0.00 0.00 0.00 64 1017.1
20260508150445 18 174 4.8 11.3 0.00 0.00 0.00 63 1017.1
20260508150339 18 204 3.2 11.3 0.00 0.00 0.00 63 1017.1
20260508150233 18 181 3.2 9.7 0.00 0.00 0.00 66 1017.1
20260508150130 18 142 4.8 9.7 0.00 0.00 0.00 66 1017.1
20260508150027 18 234 4.8 9.7 0.00 0.00 0.00 65 1017.2
20260508145925 18 201 4.8 9.7 0.00 0.00 0.00 66 1017.3
20260508145819 18 194 4.8 9.7 0.00 0.00 0.00 67 1017.3
20260508145457 18 193 4.8 9.7 0.00 0.00 0.00 66 1017.4
20260508145352 18 194 4.8 9.7 0.00 0.00 0.00 66 1017.4
20260508145245 18 202 4.8 9.7 0.00 0.00 0.00 67 1017.4
20260508145138 18 175 4.8 9.7 0.00 0.00 0.00 69 1017.4
20260508145033 17 188 4.8 11.3 0.00 0.00 0.00 67 1017.4
20260508144925 17 179 4.8 11.3 0.00 0.00 0.00 68 1017.4
20260508144822 17 209 4.8 11.3 0.00 0.00 0.00 68 1017.4
20260508144720 17 218 4.8 11.3 0.00 0.00 0.00 70 1017.5
20260508144352 17 231 6.4 11.3 0.00 0.00 0.00 68 1017.7
20260508144247 17 166 6.4 11.3 0.00 0.00 0.00 68 1017.7
20260508144141 17 194 6.4 11.3 0.00 0.00 0.00 69 1017.7
20260508144035 17 212 4.8 12.9 0.00 0.00 0.00 68 1017.7
20260508143928 17 190 4.8 12.9 0.00 0.00 0.00 69 1017.8
20260508143825 17 195 4.8 12.9 0.00 0.00 0.00 68 1017.8
20260508143721 17 200 4.8 12.9 0.00 0.00 0.00 69 1017.8
20260508143355 17 196 3.2 12.9 0.00 0.00 0.00 68 1017.8
20260508143252 17 215 3.2 12.9 0.00 0.00 0.00 69 1017.8
20260508143147 17 189 3.2 12.9 0.00 0.00 0.00 70 1017.8
20260508143040 17 207 4.8 12.9 0.00 0.00 0.00 72 1017.8
20260508142715 17 192 4.8 12.9 0.00 0.00 0.00 72 1017.8
20260508142610 17 149 4.8 12.9 0.00 0.00 0.00 73 1017.8
20260508142504 16 170 4.8 12.9 0.00 0.00 0.00 70 1017.8
20260508142143 16 182 4.8 12.9 0.00 0.00 0.00 70 1017.8
20260508142037 16 173 4.8 9.7 0.00 0.00 0.00 72 1017.8
20260508141932 16 207 4.8 9.7 0.00 0.00 0.00 73 1017.8
20260508141829 16 182 4.8 9.7 0.00 0.00 0.00 73 1017.8
20260508141727 16 198 4.8 9.7 0.00 0.00 0.00 71 1017.9
20260508141624 16 163 4.8 9.7 0.00 0.00 0.00 73 1017.9
20260508141518 16 161 4.8 9.7 0.00 0.00 0.00 73 1017.9
20260508141413 16 226 4.8 9.7 0.00 0.00 0.00 75 1017.9
20260508141309 16 127 4.8 9.7 0.00 0.00 0.00 75 1018.0
20260508141207 16 202 4.8 9.7 0.00 0.00 0.00 72 1018.0
20260508141102 16 181 3.2 9.7 0.00 0.00 0.00 71 1017.9
20260508140957 16 166 3.2 9.7 0.00 0.00 0.00 72 1017.9
20260508140852 16 205 3.2 9.7 0.00 0.00 0.00 72 1017.9
20260508140748 16 202 3.2 9.7 0.00 0.00 0.00 74 1017.9
20260508140646 16 159 3.2 9.7 0.00 0.00 0.00 75 1017.9
20260508140544 16 180 3.2 9.7 0.00 0.00 0.00 74 1017.9
20260508140221 16 159 3.2 8.0 0.00 0.00 0.00 75 1018.0
20260508140114 16 178 3.2 8.0 0.00 0.00 0.00 74 1017.9
20260508140009 16 156 1.6 8.0 0.00 0.00 0.00 74 1018.0
20260508135907 16 176 1.6 8.0 0.00 0.00 0.00 75 1017.9
20260508135800 16 169 1.6 8.0 0.00 0.00 0.00 74 1017.9
20260508135657 16 173 0.0 8.0 0.00 0.00 0.00 73 1017.9
20260508135553 16 164 0.0 8.0 0.00 0.00 0.00 78 1017.9
20260508135451 16 221 0.0 4.8 0.00 0.00 0.00 80 1017.9
20260508135349 15 203 0.0 1.6 0.00 0.00 0.00 79 1017.8
20260508135245 15 225 1.6 0.0 0.00 0.00 0.00 81 1017.8
20260508135140 15 225 1.6 4.8 0.00 0.00 0.00 81 1017.7
20260508134816 15 155 0.0 4.8 0.00 0.00 0.00 80 1017.7
20260508134708 15 155 0.0 4.8 0.00 0.00 0.00 79 1017.7
20260508134605 15 155 0.0 4.8 0.00 0.00 0.00 79 1017.6
20260508134502 15 182 0.0 4.8 0.00 0.00 0.00 78 1017.7
20260508134359 15 172 0.0 4.8 0.00 0.00 0.00 80 1017.7
20260508134252 15 197 0.0 4.8 0.00 0.00 0.00 84 1017.6
20260508134145 15 139 0.0 0.0 0.00 0.00 0.00 85 1017.7
20260508134042 15 139 0.0 3.2 0.00 0.00 0.00 84 1017.7
20260508133935 15 139 0.0 3.2 0.00 0.00 0.00 83 1017.7
20260508133828 15 156 0.0 3.2 0.00 0.00 0.00 83 1017.7
20260508133722 15 196 0.0 3.2 0.00 0.00 0.00 83 1017.7
20260508133141 15 130 0.0 3.2 0.00 0.00 0.00 87 1017.6
20260508133033 15 130 0.0 3.2 0.00 0.00 0.00 88 1017.6
20260508132927 14 127 0.0 3.2 0.00 0.00 0.00 86 1017.6
20260508132559 14 127 0.0 1.6 0.00 0.00 0.00 85 1017.6
20260508132457 14 216 0.0 1.6 0.00 0.00 0.00 85 1017.6
20260508132128 14 216 0.0 1.6 0.00 0.00 0.00 86 1017.8
20260508132024 14 216 0.0 1.6 0.00 0.00 0.00 86 1017.8
20260508131916 14 216 0.0 1.6 0.00 0.00 0.00 86 1017.8
20260508131812 14 216 0.0 1.6 0.00 0.00 0.00 88 1017.9
20260508131709 14 200 0.0 0.0 0.00 0.00 0.00 89 1017.9
20260508131604 13 200 0.0 0.0 0.00 0.00 0.00 90 1017.9
20260508131457 13 200 0.0 0.0 0.00 0.00 0.00 91 1017.8
20260508131351 13 200 0.0 0.0 0.00 0.00 0.00 91 1017.8
20260508131029 13 200 0.0 0.0 0.00 0.00 0.00 91 1018.0
20260508130922 13 200 0.0 0.0 0.00 0.00 0.00 91 1018.0
20260508130818 13 200 0.0 0.0 0.00 0.00 0.00 92 1018.0
20260508130715 13 200 0.0 0.0 0.00 0.00 0.00 92 1018.1
20260508130347 12 200 0.0 3.2 0.00 0.00 0.00 91 1018.1
20260508130245 12 200 0.0 3.2 0.00 0.00 0.00 90 1018.2
20260508130142 12 200 0.0 3.2 0.00 0.00 0.00 91 1018.1
20260508130040 12 215 0.0 3.2 0.00 0.00 0.00 92 1018.1
20260508125932 12 182 0.0 0.0 0.00 0.00 0.00 95 1018.1
20260508125610 12 185 0.0 0.0 0.00 0.00 0.00 96 1018.0
20260508125506 12 185 0.0 0.0 0.00 0.00 0.00 97 1018.0
20260508125400 12 185 0.0 0.0 0.00 0.00 0.00 97 1017.9
20260508125252 12 185 0.0 0.0 0.00 0.00 0.00 97 1018.0
20260508125146 12 185 0.0 0.0 0.00 0.00 0.00 97 1018.0
20260508125039 12 185 0.0 0.0 0.00 0.00 0.00 97 1018.0
20260508124936 12 185 0.0 0.0 0.00 0.00 0.00 97 1017.9
20260508124123 11 185 0.0 0.0 0.00 0.00 0.00 98 1018.0
20260508124015 11 185 0.0 0.0 0.00 0.00 0.00 99 1018.1
20260508123910 11 185 0.0 0.0 0.00 0.00 0.00 99 1018.0
20260508123802 11 185 0.0 0.0 0.00 0.00 0.00 99 1018.0
20260508123700 11 185 0.0 0.0 0.00 0.00 0.00 99 1018.0
20260508123554 11 185 0.0 0.0 0.00 0.00 0.00 99 1018.0
20260508123229 11 185 0.0 0.0 0.00 0.00 0.00 99 1018.0
20260508123121 11 185 0.0 0.0 0.00 0.00 0.00 99 1018.0
20260508123019 10 185 0.0 0.0 0.00 0.00 0.00 99 1018.0
20260508122912 10 185 0.0 0.0 0.00 0.00 0.00 99 1018.0
20260508122805 10 185 0.0 0.0 0.00 0.00 0.00 99 1018.0
20260508122703 10 185 0.0 0.0 0.00 0.00 0.00 99 1018.0
20260508122558 10 185 0.0 0.0 0.00 0.00 0.00 99 1018.0
20260508122454 10 185 0.0 0.0 0.00 0.00 0.00 99 1017.9
20260508122347 10 185 0.0 0.0 0.00 0.00 0.00 99 1018.0
20260508122245 10 185 0.0 0.0 0.00 0.00 0.00 99 1017.9
20260508122138 10 185 0.0 0.0 0.00 0.00 0.00 99 1018.0
20260508121811 9 185 0.0 0.0 0.00 0.00 0.00 99 1017.9
20260508121705 9 185 0.0 0.0 0.00 0.00 0.00 99 1018.0
20260508121600 9 185 0.0 0.0 0.00 0.00 0.00 98 1018.0
20260508121457 9 185 0.0 0.0 0.00 0.00 0.00 98 1018.0
20260508121355 9 185 0.0 0.0 0.00 0.00 0.00 99 1018.0
20260508121248 8 185 0.0 0.0 0.00 0.00 0.00 98 1018.0
20260508120922 8 185 0.0 0.0 0.00 0.00 0.00 98 1018.1
20260508120816 8 185 0.0 0.0 0.00 0.00 0.00 98 1018.1
20260508120710 8 185 0.0 0.0 0.00 0.00 0.00 98 1018.1
20260508120603 8 185 0.0 0.0 0.00 0.00 0.00 98 1018.1
20260508120459 8 185 0.0 0.0 0.00 0.00 0.00 98 1018.1
20260508120357 8 185 0.0 0.0 0.00 0.00 0.00 98 1018.0
20260508120251 8 185 0.0 0.0 0.00 0.00 0.00 98 1018.0
20260508120149 8 185 0.0 0.0 0.00 0.00 0.00 98 1018.0
20260508120045 8 185 0.0 0.0 0.00 0.00 0.00 98 1018.0
20260508115940 8 185 0.0 0.0 0.00 0.00 0.00 98 1018.0
20260508115834 8 185 0.0 0.0 0.00 0.00 0.00 98 1018.0
20260508115728 8 185 0.0 0.0 0.00 0.00 0.00 98 1018.0
20260508115622 8 185 0.0 0.0 0.00 0.00 0.00 97 1018.0
20260508115253 8 185 0.0 0.0 0.00 0.00 0.00 97 1018.0
20260508115150 8 185 0.0 0.0 0.00 0.00 0.00 97 1018.0
20260508115047 8 185 0.0 0.0 0.00 0.00 0.00 97 1017.9
20260508114945 8 185 0.0 0.0 0.00 0.00 0.00 97 1017.8
20260508114840 8 185 0.0 0.0 0.00 0.00 0.00 97 1017.8
20260508114733 8 185 0.0 0.0 0.00 0.00 0.00 97 1017.8
20260508114630 8 185 0.0 0.0 0.00 0.00 0.00 97 1017.8
20260508114528 8 185 0.0 0.0 0.00 0.00 0.00 97 1017.8
20260508114426 8 185 0.0 0.0 0.00 0.00 0.00 97 1017.8
20260508114319 8 185 0.0 0.0 0.00 0.00 0.00 97 1017.8
20260508114212 8 185 0.0 0.0 0.00 0.00 0.00 97 1017.8
20260508114107 8 185 0.0 0.0 0.00 0.00 0.00 97 1017.8
20260508114002 8 185 0.0 0.0 0.00 0.00 0.00 97 1017.7
20260508113640 8 185 0.0 0.0 0.00 0.00 0.00 97 1017.6
20260508113314 8 185 0.0 0.0 0.00 0.00 0.00 97 1017.6
20260508113211 8 185 0.0 0.0 0.00 0.00 0.00 97 1017.6
20260508113106 8 185 0.0 0.0 0.00 0.00 0.00 97 1017.6
20260508113002 8 185 0.0 0.0 0.00 0.00 0.00 97 1017.6
20260508112857 8 185 0.0 0.0 0.00 0.00 0.00 97 1017.5
20260508112751 8 185 0.0 0.0 0.00 0.00 0.00 97 1017.6
20260508112645 8 185 0.0 0.0 0.00 0.00 0.00 97 1017.5
20260508112539 8 185 0.0 0.0 0.00 0.00 0.00 97 1017.5
20260508112436 7 185 0.0 0.0 0.00 0.00 0.00 97 1017.5
20260508112332 7 185 0.0 0.0 0.00 0.00 0.00 97 1017.5
20260508112230 8 185 0.0 0.0 0.00 0.00 0.00 97 1017.5
20260508112125 7 185 0.0 0.0 0.00 0.00 0.00 97 1017.5
20260508112021 8 185 0.0 0.0 0.00 0.00 0.00 97 1017.5
20260508111914 7 185 0.0 0.0 0.00 0.00 0.00 97 1017.5
20260508111808 7 185 0.0 0.0 0.00 0.00 0.00 97 1017.4
20260508111700 7 185 0.0 0.0 0.00 0.00 0.00 97 1017.4
20260508111553 7 185 0.0 0.0 0.00 0.00 0.00 97 1017.4
20260508111447 7 185 0.0 0.0 0.00 0.00 0.00 97 1017.3
20260508111341 7 185 0.0 0.0 0.00 0.00 0.00 97 1017.3
20260508111235 7 185 0.0 0.0 0.00 0.00 0.00 97 1017.3
20260508110914 7 185 0.0 0.0 0.00 0.00 0.00 97 1017.3
20260508110808 7 185 0.0 0.0 0.00 0.00 0.00 97 1017.2
20260508110705 7 185 0.0 0.0 0.00 0.00 0.00 97 1017.2
20260508110601 7 185 0.0 0.0 0.00 0.00 0.00 97 1017.2
20260508110453 7 185 0.0 0.0 0.00 0.00 0.00 97 1017.1
20260508110347 7 185 0.0 0.0 0.00 0.00 0.00 97 1017.1
20260508110244 7 185 0.0 0.0 0.00 0.00 0.00 97 1017.1
20260508110140 8 185 0.0 0.0 0.00 0.00 0.00 97 1017.1
20260508110037 7 185 0.0 0.0 0.00 0.00 0.00 97 1017.1
20260508105932 7 185 0.0 0.0 0.00 0.00 0.00 97 1017.1
20260508105828 7 185 0.0 0.0 0.00 0.00 0.00 97 1017.1
20260508105721 7 185 0.0 0.0 0.00 0.00 0.00 97 1017.1
20260508105616 7 185 0.0 0.0 0.00 0.00 0.00 97 1017.1
20260508105510 7 185 0.0 0.0 0.00 0.00 0.00 97 1017.1
20260508105407 7 185 0.0 0.0 0.00 0.00 0.00 97 1017.1
20260508105306 8 185 0.0 0.0 0.00 0.00 0.00 97 1017.1
20260508105202 8 185 0.0 0.0 0.00 0.00 0.00 97 1017.1
20260508105058 8 185 0.0 0.0 0.00 0.00 0.00 97 1017.2
20260508104951 8 185 0.0 0.0 0.00 0.00 0.00 97 1017.2
20260508104845 8 185 0.0 0.0 0.00 0.00 0.00 97 1017.2
20260508104740 8 185 0.0 0.0 0.00 0.00 0.00 97 1017.2
20260508104638 8 185 0.0 0.0 0.00 0.00 0.00 97 1017.2
20260508104533 8 185 0.0 0.0 0.00 0.00 0.00 97 1017.1
20260508104430 8 185 0.0 0.0 0.00 0.00 0.00 97 1017.2
20260508103848 8 185 0.0 0.0 0.00 0.00 0.00 97 1017.2
20260508103746 8 185 0.0 0.0 0.00 0.00 0.00 97 1017.2
20260508103643 8 185 0.0 0.0 0.00 0.00 0.00 97 1017.2
20260508103536 8 185 0.0 0.0 0.00 0.00 0.00 97 1017.2
20260508103430 8 185 0.0 0.0 0.00 0.00 0.00 97 1017.2
20260508103327 8 185 0.0 0.0 0.00 0.00 0.00 97 1017.2
20260508103003 8 185 0.0 0.0 0.00 0.00 0.00 97 1017.1
20260508102858 8 185 0.0 0.0 0.00 0.00 0.00 97 1017.1
20260508102756 8 185 0.0 0.0 0.00 0.00 0.00 97 1017.1
20260508102432 8 185 0.0 0.0 0.00 0.00 0.00 97 1017.1
20260508102105 8 185 0.0 0.0 0.00 0.00 0.00 97 1017.1
20260508101958 8 185 0.0 0.0 0.00 0.00 0.00 97 1017.1
20260508101852 8 185 0.0 0.0 0.00 0.00 0.00 97 1017.1
20260508101745 8 185 0.0 0.0 0.00 0.00 0.00 97 1017.2
20260508101641 8 185 0.0 0.0 0.00 0.00 0.00 97 1017.2
20260508101534 8 185 0.0 0.0 0.00 0.00 0.00 97 1017.2
20260508101428 8 185 0.0 0.0 0.00 0.00 0.00 97 1017.3
20260508101323 8 185 0.0 0.0 0.00 0.00 0.00 97 1017.2
20260508100953 8 185 0.0 0.0 0.00 0.00 0.00 97 1017.1
20260508100848 8 185 0.0 0.0 0.00 0.00 0.00 97 1017.1
20260508100742 8 185 0.0 0.0 0.00 0.00 0.00 97 1017.1
20260508100636 8 185 0.0 0.0 0.00 0.00 0.00 97 1017.0
20260508100528 8 185 0.0 0.0 0.00 0.00 0.00 97 1017.0
20260508100424 8 185 0.0 0.0 0.00 0.00 0.00 97 1017.0
20260508100321 8 185 0.0 0.0 0.00 0.00 0.00 97 1017.0
20260508100219 8 185 0.0 0.0 0.00 0.00 0.00 97 1017.0
20260508100117 8 185 0.0 0.0 0.00 0.00 0.00 97 1017.0
20260508100011 8 185 0.0 0.0 0.00 0.00 0.00 97 1016.9
20260508095906 8 185 0.0 0.0 0.00 0.00 0.00 97 1016.9
20260508095801 8 185 0.0 0.0 0.00 0.00 0.00 97 1016.9
20260508095656 8 185 0.0 0.0 0.00 0.00 0.00 97 1016.9
20260508095552 8 185 0.0 0.0 0.00 0.00 0.00 97 1016.9
20260508095448 8 185 0.0 0.0 0.00 0.00 0.00 97 1016.9
20260508095346 8 185 0.0 0.0 0.00 0.00 0.00 97 1017.0
20260508095240 8 185 0.0 0.0 0.00 0.00 0.00 97 1016.9
20260508095137 8 185 0.0 0.0 0.00 0.00 0.00 97 1016.9
20260508095030 8 185 0.0 0.0 0.00 0.00 0.00 97 1017.0
20260508094927 8 185 0.0 0.0 0.00 0.00 0.00 97 1017.0
20260508094604 8 185 0.0 0.0 0.00 0.00 0.00 96 1017.0
20260508094456 8 185 0.0 0.0 0.00 0.00 0.00 96 1017.0
20260508094353 8 185 0.0 0.0 0.00 0.00 0.00 96 1017.0
20260508094251 8 185 0.0 0.0 0.00 0.00 0.00 96 1017.0
20260508093710 8 185 0.0 0.0 0.00 0.00 0.00 96 1017.0
20260508093607 8 185 0.0 0.0 0.00 0.00 0.00 96 1017.0
20260508093501 8 185 0.0 0.0 0.00 0.00 0.00 96 1017.0
20260508093356 8 185 0.0 0.0 0.00 0.00 0.00 96 1017.0
20260508093032 8 185 0.0 0.0 0.00 0.00 0.00 97 1017.0
20260508092449 8 185 0.0 0.0 0.00 0.00 0.00 97 1016.9
20260508092344 8 185 0.0 0.0 0.00 0.00 0.00 97 1017.0
20260508092239 8 185 0.0 0.0 0.00 0.00 0.00 97 1017.0
20260508092135 8 185 0.0 0.0 0.00 0.00 0.00 97 1017.0
20260508092033 8 185 0.0 0.0 0.00 0.00 0.00 97 1017.0
20260508091927 8 185 0.0 0.0 0.00 0.00 0.00 97 1017.0
20260508091822 8 185 0.0 0.0 0.00 0.00 0.00 97 1017.0
20260508091457 8 185 0.0 0.0 0.00 0.00 0.00 97 1016.9
20260508091349 8 185 0.0 0.0 0.00 0.00 0.00 97 1016.9
20260508091025 8 185 0.0 0.0 0.00 0.00 0.00 96 1016.9
20260508090921 8 185 0.0 0.0 0.00 0.00 0.00 96 1016.9
20260508090817 8 185 0.0 0.0 0.00 0.00 0.00 96 1016.9
20260508090712 8 185 0.0 0.0 0.00 0.00 0.00 96 1016.9
20260508090605 8 185 0.0 0.0 0.00 0.00 0.00 96 1016.8
20260508090458 8 185 0.0 0.0 0.00 0.00 0.00 96 1016.9
20260508090353 8 185 0.0 0.0 0.00 0.00 0.00 96 1016.9
20260508090251 8 185 0.0 0.0 0.00 0.00 0.00 96 1016.8
20260508090148 8 185 0.0 0.0 0.00 0.00 0.00 96 1016.8
20260508090042 8 185 0.0 0.0 0.00 0.00 0.00 96 1016.8
20260508085940 8 185 0.0 0.0 0.00 0.00 0.00 97 1016.8
20260508085835 8 185 0.0 0.0 0.00 0.00 0.00 96 1016.7
20260508085732 8 185 0.0 0.0 0.00 0.00 0.00 97 1016.7
20260508085629 8 185 0.0 0.0 0.00 0.00 0.00 96 1016.7
20260508085308 8 185 0.0 0.0 0.00 0.00 0.00 96 1016.8
20260508085202 8 185 0.0 0.0 0.00 0.00 0.00 97 1016.8
20260508085100 8 185 0.0 0.0 0.00 0.00 0.00 96 1016.8
20260508084953 8 185 0.0 0.0 0.00 0.00 0.00 96 1016.7
20260508084634 8 185 0.0 0.0 0.00 0.00 0.00 96 1016.7
20260508084532 8 185 0.0 0.0 0.00 0.00 0.00 96 1016.7
20260508084428 8 185 0.0 0.0 0.00 0.00 0.00 96 1016.6
20260508084326 8 185 0.0 0.0 0.00 0.00 0.00 96 1016.7
20260508084223 8 185 0.0 0.0 0.00 0.00 0.00 96 1016.7
20260508084117 8 185 0.0 0.0 0.00 0.00 0.00 96 1016.7
20260508084014 8 185 0.0 0.0 0.00 0.00 0.00 96 1016.7
20260508083908 8 185 0.0 0.0 0.00 0.00 0.00 96 1016.7
20260508083805 8 185 0.0 0.0 0.00 0.00 0.00 96 1016.7
20260508083702 8 185 0.0 0.0 0.00 0.00 0.00 96 1016.7
20260508083554 9 185 0.0 0.0 0.00 0.00 0.00 96 1016.6
20260508083449 9 185 0.0 0.0 0.00 0.00 0.00 96 1016.6
20260508083342 9 185 0.0 0.0 0.00 0.00 0.00 96 1016.6
20260508083236 9 185 0.0 0.0 0.00 0.00 0.00 96 1016.6
20260508083130 9 185 0.0 0.0 0.00 0.00 0.00 96 1016.7
20260508083026 9 185 0.0 0.0 0.00 0.00 0.00 96 1016.6
20260508082659 9 185 0.0 0.0 0.00 0.00 0.00 96 1016.6
20260508082554 9 185 0.0 0.0 0.00 0.00 0.00 96 1016.6
20260508082452 9 185 0.0 0.0 0.00 0.00 0.00 96 1016.6
20260508082346 9 185 0.0 0.0 0.00 0.00 0.00 96 1016.6
20260508082239 9 185 0.0 0.0 0.00 0.00 0.00 96 1016.6
20260508082136 9 185 0.0 0.0 0.00 0.00 0.00 96 1016.6
20260508082034 9 185 0.0 0.0 0.00 0.00 0.00 96 1016.6
20260508081927 9 185 0.0 0.0 0.00 0.00 0.00 96 1016.6
20260508081825 9 185 0.0 0.0 0.00 0.00 0.00 96 1016.6
20260508081723 9 185 0.0 0.0 0.00 0.00 0.00 96 1016.6
20260508081621 9 185 0.0 0.0 0.00 0.00 0.00 96 1016.6
20260508081514 9 185 0.0 0.0 0.00 0.00 0.00 96 1016.6
20260508081407 9 185 0.0 0.0 0.00 0.00 0.00 96 1016.5
20260508081300 9 185 0.0 0.0 0.00 0.00 0.00 96 1016.6
20260508081156 9 185 0.0 0.0 0.00 0.00 0.00 96 1016.5
20260508081049 9 185 0.0 0.0 0.00 0.00 0.00 96 1016.5
20260508080947 9 185 0.0 0.0 0.00 0.00 0.00 96 1016.5
20260508080840 9 185 0.0 0.0 0.00 0.00 0.00 96 1016.5
20260508080733 9 185 0.0 0.0 0.00 0.00 0.00 96 1016.6
20260508080627 9 185 0.0 0.0 0.00 0.00 0.00 96 1016.6
20260508080522 9 185 0.0 0.0 0.00 0.00 0.00 96 1016.6
20260508080417 9 185 0.0 0.0 0.00 0.00 0.00 96 1016.6
20260508080309 9 185 0.0 0.0 0.00 0.00 0.00 96 1016.7
20260508080204 9 185 0.0 0.0 0.00 0.00 0.00 96 1016.7
20260508075837 9 185 0.0 0.0 0.00 0.00 0.00 96 1016.7
20260508075733 9 185 0.0 0.0 0.00 0.00 0.00 96 1016.7
20260508075628 9 185 0.0 0.0 0.00 0.00 0.00 96 1016.7
20260508075521 9 185 0.0 0.0 0.00 0.00 0.00 96 1016.7
20260508075413 9 185 0.0 0.0 0.00 0.00 0.00 96 1016.7
20260508075308 9 185 0.0 0.0 0.00 0.00 0.00 96 1016.7
20260508075159 9 185 0.0 0.0 0.00 0.00 0.00 96 1016.7
20260508074616 9 185 0.0 0.0 0.00 0.00 0.00 96 1016.7
20260508074513 9 185 0.0 0.0 0.00 0.00 0.00 96 1016.8
20260508074410 9 185 0.0 0.0 0.00 0.00 0.00 96 1016.7
20260508074306 9 185 0.0 0.0 0.00 0.00 0.00 96 1016.8
20260508074201 10 185 0.0 0.0 0.00 0.00 0.00 96 1016.7
20260508073832 10 185 0.0 0.0 0.00 0.00 0.00 96 1016.8
20260508073506 10 185 0.0 0.0 0.00 0.00 0.00 96 1016.8
20260508073403 10 185 0.0 0.0 0.00 0.00 0.00 96 1016.8
20260508073301 10 185 0.0 0.0 0.00 0.00 0.00 96 1016.8
20260508073153 10 185 0.0 0.0 0.00 0.00 0.00 96 1016.8
20260508073045 10 185 0.0 0.0 0.00 0.00 0.00 96 1016.7
20260508072943 10 185 0.0 0.0 0.00 0.00 0.00 96 1016.8
20260508072836 10 185 0.0 0.0 0.00 0.00 0.00 96 1016.8
20260508072733 10 185 0.0 0.0 0.00 0.00 0.00 96 1016.8
20260508072629 10 185 0.0 0.0 0.00 0.00 0.00 96 1016.8
20260508072523 10 185 0.0 0.0 0.00 0.00 0.00 96 1016.8
20260508072200 10 185 0.0 0.0 0.00 0.00 0.00 96 1016.9
20260508072055 10 185 0.0 0.0 0.00 0.00 0.00 96 1016.9
20260508071948 10 185 0.0 0.0 0.00 0.00 0.00 96 1016.9
20260508071843 10 185 0.0 0.0 0.00 0.00 0.00 96 1016.9
20260508071520 10 185 0.0 0.0 0.00 0.00 0.00 96 1016.9
20260508071416 10 185 0.0 0.0 0.00 0.00 0.00 96 1016.9
20260508071313 10 185 0.0 0.0 0.00 0.00 0.00 96 1016.9
20260508071206 10 185 0.0 0.0 0.00 0.00 0.00 96 1017.0
20260508071059 10 185 0.0 0.0 0.00 0.00 0.00 96 1017.0
20260508070952 10 185 0.0 0.0 0.00 0.00 0.00 96 1017.0
20260508070849 10 185 0.0 0.0 0.00 0.00 0.00 96 1017.0
20260508070745 10 185 0.0 0.0 0.00 0.00 0.00 96 1016.9
20260508070424 10 185 0.0 0.0 0.00 0.00 0.00 96 1016.9
20260508070322 10 185 0.0 0.0 0.00 0.00 0.00 96 1016.9
20260508070217 10 185 0.0 0.0 0.00 0.00 0.00 96 1016.9
20260508070114 10 185 0.0 0.0 0.00 0.00 0.00 96 1016.9
20260508070007 10 185 0.0 0.0 0.00 0.00 0.00 96 1016.9
20260508065903 10 185 0.0 0.0 0.00 0.00 0.00 96 1016.9
20260508065757 10 185 0.0 1.6 0.00 0.00 0.00 96 1016.9
20260508065654 10 185 0.0 1.6 0.00 0.00 0.00 96 1016.8
20260508065552 10 185 0.0 0.0 0.00 0.00 0.00 96 1016.9
20260508065010 10 185 0.0 0.0 0.00 0.00 0.00 96 1016.9
20260508064905 10 185 0.0 0.0 0.00 0.00 0.00 96 1016.9
20260508064759 10 185 0.0 0.0 0.00 0.00 0.00 96 1017.0
20260508064432 10 185 0.0 0.0 0.00 0.00 0.00 96 1017.0
20260508064327 10 185 0.0 0.0 0.00 0.00 0.00 96 1017.1
20260508064220 10 185 0.0 0.0 0.00 0.00 0.00 96 1017.1
20260508064115 10 185 0.0 0.0 0.00 0.00 0.00 96 1017.1
20260508064010 10 185 0.0 0.0 0.00 0.00 0.00 96 1017.1
20260508063903 10 185 0.0 0.0 0.00 0.00 0.00 96 1017.2
20260508063758 10 185 0.0 0.0 0.00 0.00 0.00 96 1017.2
20260508063656 10 185 0.0 0.0 0.00 0.00 0.00 96 1017.3
20260508063333 10 185 0.0 0.0 0.00 0.00 0.00 96 1017.2
20260508063230 10 185 0.0 0.0 0.00 0.00 0.00 95 1017.3
20260508063125 10 185 0.0 0.0 0.00 0.00 0.00 95 1017.3
20260508063021 10 185 0.0 0.0 0.00 0.00 0.00 95 1017.2
20260508062658 10 185 0.0 0.0 0.00 0.00 0.00 95 1017.3
20260508062552 10 185 0.0 0.0 0.00 0.00 0.00 95 1017.3
20260508061747 10 185 0.0 0.0 0.00 0.00 0.00 95 1017.4
20260508061641 10 185 0.0 0.0 0.00 0.00 0.00 95 1017.5
20260508061535 10 185 0.0 0.0 0.00 0.00 0.00 95 1017.5
20260508061429 10 185 0.0 0.0 0.00 0.00 0.00 95 1017.5
20260508061322 10 185 0.0 0.0 0.00 0.00 0.00 95 1017.5
20260508061218 10 185 0.0 0.0 0.00 0.00 0.00 95 1017.5
20260508061115 10 185 0.0 0.0 0.00 0.00 0.00 95 1017.5
20260508061013 10 185 0.0 0.0 0.00 0.00 0.00 95 1017.5
20260508060906 10 185 0.0 0.0 0.00 0.00 0.00 95 1017.4
20260508060321 10 185 0.0 0.0 0.00 0.00 0.00 95 1017.4
20260508060218 10 185 0.0 0.0 0.00 0.00 0.00 95 1017.4
20260508060111 10 185 0.0 0.0 0.00 0.00 0.00 95 1017.5
20260508060005 10 185 0.0 0.0 0.00 0.00 0.00 95 1017.4
20260508055858 10 185 0.0 0.0 0.00 0.00 0.00 95 1017.4
20260508055752 10 185 0.0 0.0 0.00 0.00 0.00 95 1017.3
20260508055647 10 185 0.0 0.0 0.00 0.00 0.00 95 1017.3
20260508055542 10 185 0.0 0.0 0.00 0.00 0.00 95 1017.3
20260508055216 10 185 0.0 0.0 0.00 0.00 0.00 95 1017.4
20260508054639 10 185 0.0 0.0 0.00 0.00 0.00 95 1017.4
20260508054536 10 185 0.0 0.0 0.00 0.00 0.00 95 1017.3
20260508054428 10 185 0.0 0.0 0.00 0.00 0.00 95 1017.3
20260508054323 10 185 0.0 0.0 0.00 0.00 0.00 95 1017.3
20260508054219 10 185 0.0 0.0 0.00 0.00 0.00 95 1017.2
20260508053854 10 185 0.0 1.6 0.00 0.00 0.00 95 1017.3
20260508053749 10 185 0.0 1.6 0.00 0.00 0.00 95 1017.3
20260508053647 10 185 0.0 1.6 0.00 0.00 0.00 95 1017.3
20260508053319 10 185 0.0 0.0 0.00 0.00 0.00 95 1017.3
20260508052729 10 185 0.0 0.0 0.00 0.00 0.00 94 1017.0
20260508052621 10 185 0.0 0.0 0.00 0.00 0.00 95 1017.0
20260508052517 10 185 0.0 0.0 0.00 0.00 0.00 94 1017.0
20260508052415 10 185 0.0 0.0 0.00 0.00 0.00 94 1017.0
20260508052311 10 185 0.0 0.0 0.00 0.00 0.00 94 1017.0
20260508052207 10 185 0.0 0.0 0.00 0.00 0.00 94 1017.0
20260508051844 10 185 0.0 0.0 0.00 0.00 0.00 94 1017.1
20260508051737 10 185 0.0 0.0 0.00 0.00 0.00 94 1017.1
20260508051634 10 185 0.0 0.0 0.00 0.00 0.00 94 1017.3
20260508051531 10 185 0.0 0.0 0.00 0.00 0.00 94 1017.3
20260508051427 10 185 0.0 0.0 0.00 0.00 0.00 94 1017.3
20260508051323 10 185 0.0 0.0 0.00 0.00 0.00 94 1017.2
20260508050959 10 185 0.0 0.0 0.00 0.00 0.00 94 1017.2
20260508050852 10 185 0.0 0.0 0.00 0.00 0.00 94 1017.3
20260508050745 10 185 0.0 0.0 0.00 0.00 0.00 94 1017.4
20260508050639 10 185 0.0 0.0 0.00 0.00 0.00 94 1017.3
20260508050535 10 185 0.0 0.0 0.00 0.00 0.00 94 1017.3
20260508050427 10 185 0.0 0.0 0.00 0.00 0.00 94 1017.4
20260508050324 10 185 0.0 0.0 0.00 0.00 0.00 94 1017.4
20260508050219 10 185 0.0 0.0 0.00 0.00 0.00 94 1017.4
20260508050117 10 185 0.0 0.0 0.00 0.00 0.00 94 1017.4
20260508050015 10 185 0.0 0.0 0.00 0.00 0.00 94 1017.4
20260508045652 10 185 0.0 1.6 0.00 0.00 0.00 93 1017.1
20260508045549 10 185 0.0 0.0 0.00 0.00 0.00 93 1017.1
20260508045444 11 185 0.0 0.0 0.00 0.00 0.00 93 1017.1
20260508045341 11 185 0.0 0.0 0.00 0.00 0.00 93 1017.2
20260508045235 11 185 0.0 0.0 0.00 0.00 0.00 93 1017.1
20260508045129 11 185 0.0 0.0 0.00 0.00 0.00 93 1017.2
20260508045021 11 185 0.0 0.0 0.00 0.00 0.00 93 1017.3
20260508044917 11 185 0.0 0.0 0.00 0.00 0.00 93 1017.3
20260508044814 11 185 0.0 0.0 0.00 0.00 0.00 93 1017.3
20260508044711 11 185 0.0 0.0 0.00 0.00 0.00 93 1017.4
20260508044610 11 185 0.0 0.0 0.00 0.00 0.00 93 1017.3
20260508044503 11 185 0.0 0.0 0.00 0.00 0.00 93 1017.3
20260508044357 11 185 0.0 0.0 0.00 0.00 0.00 93 1017.3
20260508044252 11 185 0.0 0.0 0.00 0.00 0.00 93 1017.3
20260508044146 11 185 0.0 0.0 0.00 0.00 0.00 93 1017.3
20260508044044 11 185 0.0 0.0 0.00 0.00 0.00 93 1017.3
20260508043938 11 185 0.0 0.0 0.00 0.00 0.00 93 1017.3
20260508043830 11 185 0.0 0.0 0.00 0.00 0.00 93 1017.3
20260508043726 11 185 0.0 0.0 0.00 0.00 0.00 93 1017.3
20260508043622 11 185 0.0 0.0 0.00 0.00 0.00 93 1017.4
20260508043519 11 185 0.0 0.0 0.00 0.00 0.00 93 1017.4
20260508043151 11 185 0.0 0.0 0.00 0.00 0.00 93 1017.3
20260508043047 11 185 0.0 0.0 0.00 0.00 0.00 93 1017.3
20260508042940 11 185 0.0 0.0 0.00 0.00 0.00 92 1017.3
20260508042836 11 185 0.0 0.0 0.00 0.00 0.00 92 1017.3
20260508042733 11 185 0.0 0.0 0.00 0.00 0.00 92 1017.3
20260508042628 11 185 0.0 0.0 0.00 0.00 0.00 92 1017.3
20260508042523 11 185 0.0 0.0 0.00 0.00 0.00 92 1017.3
20260508042419 11 185 0.0 0.0 0.00 0.00 0.00 92 1017.3
20260508042316 11 185 0.0 0.0 0.00 0.00 0.00 92 1017.3
20260508042213 11 185 0.0 0.0 0.00 0.00 0.00 92 1017.3
20260508042109 11 185 0.0 0.0 0.00 0.00 0.00 92 1017.3
20260508042005 11 185 0.0 0.0 0.00 0.00 0.00 92 1017.3
20260508041859 11 185 0.0 0.0 0.00 0.00 0.00 92 1017.3
20260508041752 11 185 0.0 0.0 0.00 0.00 0.00 92 1017.3
20260508041647 11 185 0.0 0.0 0.00 0.00 0.00 92 1017.3
20260508041542 11 185 0.0 0.0 0.00 0.00 0.00 92 1017.4
20260508041440 11 185 0.0 0.0 0.00 0.00 0.00 92 1017.4
20260508041335 11 185 0.0 0.0 0.00 0.00 0.00 92 1017.4
20260508041230 11 185 0.0 0.0 0.00 0.00 0.00 92 1017.4
20260508040649 11 185 0.0 0.0 0.00 0.00 0.00 91 1017.4
20260508040323 11 185 0.0 0.0 0.00 0.00 0.00 91 1017.5
20260508040219 11 185 0.0 0.0 0.00 0.00 0.00 91 1017.4
20260508035856 11 185 0.0 0.0 0.00 0.00 0.00 91 1017.4
20260508035534 11 185 0.0 0.0 0.00 0.00 0.00 90 1017.5
20260508035432 11 185 0.0 0.0 0.00 0.00 0.00 90 1017.5
20260508035326 11 185 0.0 0.0 0.00 0.03 0.00 90 1017.5
20260508035222 11 185 0.0 0.0 0.00 0.03 0.00 90 1017.5
20260508035118 11 185 0.0 0.0 0.00 0.03 0.00 90 1017.5
20260508035015 11 185 0.0 0.0 0.00 0.03 0.00 90 1017.5
20260508034912 11 185 0.0 0.0 0.00 0.03 0.00 90 1017.5
20260508034809 11 185 0.0 0.0 0.00 0.03 0.00 90 1017.6
20260508034703 11 185 0.0 0.0 0.00 0.03 0.00 90 1017.6
20260508034556 11 185 0.0 0.0 0.00 0.03 0.00 90 1017.6
20260508034451 11 185 0.0 0.0 0.00 0.03 0.00 90 1017.6
20260508034346 11 185 0.0 0.0 0.00 0.03 0.00 90 1017.6
20260508034240 11 185 0.0 0.0 0.00 0.03 0.00 90 1017.5
20260508034132 11 185 0.0 0.0 0.00 0.03 0.00 90 1017.5
20260508033812 11 185 0.0 0.0 0.00 0.03 0.00 90 1017.5
20260508033448 11 185 0.0 0.0 0.00 0.03 0.00 90 1017.4
20260508033343 11 185 0.0 0.0 0.00 0.03 0.00 90 1017.5
20260508033236 11 185 0.0 0.0 0.00 0.03 0.00 89 1017.4
20260508033130 11 185 0.0 0.0 0.00 0.03 0.00 90 1017.5
20260508033022 11 185 0.0 0.0 0.00 0.03 0.00 89 1017.5
20260508032916 11 185 0.0 0.0 0.00 0.03 0.00 89 1017.4
20260508032812 11 185 0.0 0.0 0.00 0.03 0.00 89 1017.3
20260508032711 11 185 0.0 0.0 0.00 0.03 0.00 89 1017.3
20260508031908 11 185 0.0 0.0 0.00 0.03 0.00 89 1017.2
20260508031801 11 185 0.0 0.0 0.00 0.03 0.00 89 1017.2
20260508031659 11 185 0.0 0.0 0.00 0.03 0.00 89 1017.2
20260508031553 11 185 0.0 0.0 0.00 0.03 0.00 89 1017.3
20260508031446 11 185 0.0 0.0 0.00 0.03 0.00 89 1017.3
20260508031341 11 185 0.0 0.0 0.00 0.03 0.00 89 1017.4
20260508031016 11 185 0.0 0.0 0.00 0.03 0.00 88 1017.4
20260508030912 12 185 0.0 0.0 0.00 0.03 0.00 88 1017.4
20260508030806 12 185 0.0 0.0 0.00 0.03 0.00 88 1017.5
20260508030659 12 185 0.0 0.0 0.00 0.03 0.00 88 1017.5
20260508030552 12 185 0.0 0.0 0.00 0.03 0.00 88 1017.5
20260508030446 12 185 0.0 0.0 0.00 0.03 0.00 87 1017.4
20260508030341 12 185 0.0 0.0 0.00 0.03 0.00 87 1017.5
20260508030237 12 185 0.0 0.0 0.00 0.03 0.00 87 1017.5
20260508030135 12 185 0.0 0.0 0.00 0.03 0.00 87 1017.5
20260508030029 12 185 0.0 0.0 0.00 0.03 0.00 86 1017.5
20260508025701 12 185 0.0 0.0 0.00 0.03 0.00 87 1017.4
20260508025559 12 185 0.0 0.0 0.00 0.03 0.00 87 1017.4
20260508025451 12 185 0.0 0.0 0.00 0.03 0.00 86 1017.4
20260508025345 12 185 0.0 0.0 0.00 0.03 0.00 86 1017.4
20260508025022 12 185 0.0 0.0 0.00 0.03 0.00 86 1017.3
20260508024916 12 185 0.0 0.0 0.00 0.03 0.00 86 1017.3
20260508024809 12 185 0.0 0.0 0.00 0.03 0.00 86 1017.2
20260508024701 12 185 0.0 0.0 0.00 0.03 0.00 85 1017.1
20260508024559 12 185 0.0 0.0 0.00 0.03 0.00 85 1017.1
20260508024454 12 185 0.0 0.0 0.00 0.03 0.00 86 1017.2
20260508024127 12 185 0.0 0.0 0.00 0.03 0.00 86 1017.3
20260508024022 12 185 0.0 0.0 0.00 0.03 0.00 86 1017.3
20260508023919 12 185 0.0 0.0 0.00 0.03 0.00 86 1017.3
20260508023815 12 185 0.0 0.0 0.00 0.03 0.00 86 1017.4
20260508023710 12 185 0.0 0.0 0.00 0.03 0.00 86 1017.3
20260508023605 12 185 0.0 0.0 0.00 0.03 0.00 86 1017.3
20260508023457 12 185 0.0 0.0 0.00 0.03 0.00 86 1017.3
20260508022917 12 185 0.0 0.0 0.00 0.03 0.00 85 1017.1
20260508022815 12 185 0.0 0.0 0.00 0.03 0.00 85 1017.1
20260508022447 12 185 0.0 0.0 0.00 0.03 0.00 85 1017.1
20260508022340 12 185 0.0 0.0 0.00 0.03 0.00 84 1017.0
20260508022238 12 185 0.0 0.0 0.00 0.03 0.00 84 1017.0
20260508022134 12 185 0.0 0.0 0.00 0.03 0.00 84 1017.0
20260508022027 12 185 0.0 0.0 0.00 0.03 0.00 84 1017.1
20260508021921 12 185 0.0 0.0 0.00 0.03 0.00 84 1017.1
20260508021814 12 185 0.0 0.0 0.00 0.03 0.00 84 1017.1
20260508021453 12 185 0.0 0.0 0.00 0.03 0.00 83 1017.1
20260508021350 12 185 0.0 0.0 0.00 0.03 0.00 83 1017.1
20260508021242 12 185 0.0 0.0 0.00 0.03 0.00 83 1017.1
20260508021136 12 185 0.0 0.0 0.00 0.03 0.00 84 1017.0
20260508021030 12 185 0.0 0.0 0.00 0.03 0.00 83 1017.0
20260508020928 12 185 0.0 0.0 0.00 0.03 0.00 84 1016.9
20260508020606 13 185 0.0 0.0 0.00 0.03 0.00 83 1016.9
20260508020500 13 185 0.0 0.0 0.00 0.03 0.00 83 1016.8
20260508020357 13 185 0.0 0.0 0.00 0.03 0.00 83 1016.8
20260508020255 13 185 0.0 0.0 0.00 0.03 0.00 83 1016.8
20260508020151 13 185 0.0 0.0 0.00 0.03 0.00 83 1016.8
20260508020048 13 185 0.0 0.0 0.00 0.03 0.00 83 1016.8
20260508015944 13 185 0.0 0.0 0.00 0.03 0.00 83 1016.8
20260508015839 13 185 0.0 0.0 0.00 0.03 0.00 83 1016.8
20260508015736 13 185 0.0 0.0 0.00 0.03 0.00 82 1016.8
20260508015630 13 185 0.0 0.0 0.00 0.03 0.00 82 1016.7
20260508015524 13 185 0.0 0.0 0.00 0.03 0.00 82 1016.7
20260508015156 13 185 0.0 0.0 0.00 0.03 0.00 82 1016.7
20260508014829 13 185 0.0 0.0 0.00 0.03 0.00 81 1016.7
20260508014723 13 185 0.0 0.0 0.00 0.03 0.00 81 1016.8
20260508014620 13 185 0.0 0.0 0.00 0.03 0.00 81 1016.8
20260508014250 13 185 0.0 0.0 0.00 0.03 0.00 82 1016.8
20260508014147 13 185 0.0 0.0 0.00 0.03 0.00 82 1016.8
20260508014042 13 185 0.0 0.0 0.00 0.03 0.00 82 1016.8
20260508013939 13 185 0.0 0.0 0.00 0.03 0.00 82 1016.8
20260508013833 13 185 0.0 0.0 0.00 0.03 0.00 82 1016.8
20260508013727 13 185 0.0 0.0 0.00 0.03 0.00 82 1016.8
20260508013620 13 185 0.0 0.0 0.00 0.03 0.00 82 1016.8
20260508013518 13 185 0.0 0.0 0.00 0.03 0.00 81 1016.8
20260508013152 13 185 0.0 0.0 0.00 0.03 0.00 81 1016.7
20260508012833 13 185 0.0 0.0 0.00 0.03 0.00 80 1016.6
20260508012510 13 185 0.0 0.0 0.00 0.03 0.00 81 1016.5
20260508012405 13 185 0.0 0.0 0.00 0.03 0.00 81 1016.6
20260508012307 14 185 0.0 0.0 0.00 0.03 0.00 82 1016.6
20260508012155 14 185 0.0 0.0 0.00 0.03 0.00 82 1016.5